Visibility
15.0 15.0 15.0 15.0 15.0 15.0 15.0 15.0 15.0 15.0 15.0 15.0 15.0 15.0 15.0 15.0 15.0 15.0 15.0 15.0 15.0 15.0 15.0 15.0 15.0 15.0 15.0 15.0 15.0 15.0 15.0 15.0 15.0 15.0 15.0 15.0 15.0 15.0 15.0 15.0 15.0 15.0 15.0 15.0
15.0 15.0 15.0 15.0 15.0 15.0 15.0 15.0 15.0 15.0 15.0 15.0 15.0 15.0 15.0 15.0 15.0 15.0 15.0 15.0 15.0 15.0 15.0 15.0 15.0 15.0 15.0 15.0 15.0 15.0 15.0 15.0 15.0 15.0 15.0 15.0 15.0 15.0 15.0 15.0 15.0 15.0 15.0 15.0
15.0 15.0 15.0 15.0 15.0 15.0 15.0 15.0 15.0 15.0 15.0 15.0 15.0 15.0 15.0 15.0 15.0 15.0 15.0 15.0 15.0 15.0 15.0 15.0 15.0 15.0 15.0 15.0 15.0 15.0 15.0 15.0 15.0 15.0 15.0 15.0 15.0 15.0 15.0 15.0 15.0 15.0 15.0 15.0
15.0 15.0 15.0 15.0 15.0 15.0 15.0 15.0 15.0 15.0 15.0 15.0 15.0 15.0 15.0 15.0 15.0 15.0 15.0 15.0 15.0 15.0 15.0 15.0 15.0 15.0 15.0 15.0 15.0 15.0 15.0 15.0 15.0 15.0 15.0 15.0 15.0 15.0 15.0 15.0 15.0 15.0 15.0 15.0
15.0 15.0 15.0 15.0 15.0 15.0 15.0 15.0 15.0 15.0 15.0 15.0 15.0 15.0 15.0 15.0 15.0 15.0 15.0 15.0 15.0 15.0 15.0 15.0 15.0 15.0 15.0 15.0 15.0 15.0 15.0 15.0 15.0 15.0 15.0 15.0 15.0 15.0 15.0 15.0 15.0 15.0 15.0 15.0
15.0 15.0 15.0 15.0 15.0 15.0 15.0 15.0 15.0 15.0 15.0 15.0 15.0 15.0 15.0 15.0 15.0 15.0 15.0 15.0 15.0 15.0 15.0 15.0 15.0 15.0 15.0 15.0 15.0 15.0 15.0 15.0 15.0 15.0 15.0 15.0 15.0 15.0 15.0 15.0 15.0 15.0 15.0 15.0
13.0 11.3 15.0 15.0 15.0 15.0 15.0 15.0 2.2 2.7 4.7 15.0 15.0 15.0 15.0 15.0 15.0 15.0 15.0 15.0 15.0 15.0 15.0 15.0 15.0 15.0 15.0 15.0 15.0 15.0 15.0 15.0 15.0 15.0 15.0 15.0 15.0 15.0 15.0 15.0 15.0 15.0 15.0 15.0
2.2 0.3 7.6 15.0 15.0 15.0 15.0 15.0 11.5 5.7 15.0 15.0 15.0 15.0 15.0 15.0 15.0 15.0 15.0 15.0 15.0 15.0 15.0 15.0 15.0 15.0 15.0 15.0 15.0 15.0 15.0 15.0 15.0 15.0 15.0 15.0 15.0 15.0 15.0 15.0 15.0 15.0 15.0 15.0
2.7 0.7 15.0 15.0 15.0 15.0 6.2 5.4 15.0 7.2 14.9 8.5 15.0 15.0 15.0 15.0 15.0 15.0 15.0 15.0 15.0 15.0 15.0 15.0 15.0 15.0 15.0 15.0 15.0 15.0 15.0 15.0 15.0 15.0 15.0 15.0 15.0 15.0 15.0 15.0 15.0 15.0 15.0 15.0
15.0 10.8 8.7 15.0 15.0 15.0 9.1 15.0 6.6 15.0 8.6 15.0 15.0 15.0 2.8 13.5 15.0 15.0 15.0 15.0 15.0 15.0 15.0 15.0 15.0 15.0 15.0 15.0 15.0 15.0 15.0 15.0 15.0 15.0 15.0 15.0 15.0 15.0 15.0 15.0 15.0 15.0 15.0 15.0
15.0 15.0 1.2 14.5 13.6 15.0 8.8 7.5 13.4 11.3 15.0 2.0 11.6 8.3 12.0 15.0 15.0 15.0 15.0 15.0 15.0 15.0 15.0 15.0 15.0 15.0 15.0 15.0 15.0 15.0 15.0 15.0 15.0 15.0 15.0 15.0 15.0 15.0 15.0 15.0 15.0 15.0 15.0 15.0
15.0 8.1 1.2 14.6 15.0 15.0 15.0 15.0 15.0 14.7 14.6 15.0 14.8 5.8 15.0 15.0 15.0 15.0 15.0 15.0 15.0 15.0 15.0 15.0 15.0 15.0 15.0 15.0 14.6 15.0 15.0 15.0 15.0 15.0 15.0 15.0 15.0 15.0 15.0 15.0 15.0 15.0 15.0 15.0
15.0 13.9 1.3 11.8 12.0 12.7 5.8 15.0 15.0 15.0 15.0 15.0 15.0 8.8 15.0 15.0 15.0 14.5 15.0 15.0 15.0 15.0 15.0 15.0 15.0 15.0 15.0 15.0 11.8 15.0 15.0 15.0 15.0 15.0 14.6 15.0 15.0 15.0 15.0 7.1 15.0 15.0 15.0 15.0
15.0 8.1 2.0 7.1 15.0 15.0 11.5 11.4 15.0 13.0 12.4 11.6 15.0 13.1 10.9 15.0 15.0 15.0 15.0 15.0 15.0 15.0 15.0 15.0 15.0 15.0 15.0 14.5 6.8 10.0 15.0 15.0 15.0 15.0 15.0 15.0 15.0 15.0 4.5 14.0 15.0 15.0 15.0 15.0
15.0 6.0 15.0 14.5 5.6 15.0 8.4 15.0 3.6 2.8 15.0 15.0 14.4 15.0 15.0 15.0 15.0 15.0 15.0 15.0 15.0 15.0 15.0 15.0 15.0 15.0 14.5 14.5 12.1 6.9 2.7 9.3 12.6 15.0 15.0 15.0 12.6 15.0 5.5 15.0 15.0 15.0 15.0 15.0
15.0 15.0 15.0 15.0 15.0 15.0 15.0 15.0 15.0 15.0 15.0 15.0 15.0 1.8 15.0 15.0 15.0 15.0 0.4 0.1 15.0 15.0 14.8 15.0 15.0 13.6 5.8 15.0 8.6 11.2 11.0 10.5 11.3 15.0 3.3 9.2 14.8 7.8 8.7 15.0 15.0 15.0 15.0 15.0
15.0 15.0 15.0 15.0 15.0 15.0 13.5 15.0 15.0 15.0 15.0 9.9 0.0 4.6 15.0 15.0 0.5 0.1 0.0 0.0 0.0 0.1 0.1 0.0 0.1 0.1 0.2 3.1 9.7 8.7 7.1 10.3 6.4 10.8 4.5 14.5 13.7 9.2 14.5 14.7 15.0 15.0 15.0 15.0
15.0 14.5 15.0 15.0 15.0 15.0 11.5 15.0 15.0 7.8 15.0 15.0 15.0 13.0 0.1 0.2 0.1 0.0 0.0 0.1 0.1 0.0 0.0 0.0 0.1 0.2 0.2 2.3 5.2 6.0 7.2 6.9 7.6 8.9 8.1 5.6 9.9 9.1 12.0 14.6 15.0 15.0 15.0 10.4
15.0 15.0 15.0 15.0 15.0 15.0 4.4 11.3 14.8 11.6 0.3 15.0 13.7 1.1 0.1 0.1 15.0 12.7 0.2 0.0 0.0 0.0 0.0 0.0 0.0 0.0 0.1 0.6 4.6 3.2 5.2 4.2 3.9 8.9 1.7 3.2 5.7 8.7 15.0 12.3 15.0 15.0 15.0 14.4
15.0 15.0 15.0 15.0 15.0 3.8 4.3 15.0 15.0 15.0 0.1 15.0 15.0 15.0 15.0 15.0 0.0 0.3 0.0 0.0 0.0 0.0 0.0 0.0 0.0 12.4 1.8 0.1 3.1 3.2 1.6 8.3 0.7 0.1 0.4 2.0 3.3 3.6 9.4 7.7 7.7 15.0 6.4 1.4
15.0 15.0 15.0 15.0 14.4 10.0 0.1 15.0 15.0 1.1 0.0 9.8 15.0 15.0 15.0 0.2 0.0 0.1 0.1 0.1 0.0 0.0 15.0 15.0 15.0 15.0 15.0 9.7 2.0 3.6 4.5 0.2 0.1 5.2 1.7 6.1 10.1 8.5 6.3 6.7 5.2 2.8 0.4 0.3
4.8 4.7 3.5 7.1 8.9 0.3 0.1 13.8 3.6 0.0 0.0 0.0 3.1 10.8 11.3 13.0 9.6 14.5 0.1 0.1 9.1 0.3 7.5 15.0 15.0 15.0 15.0 15.0 13.7 3.1 3.2 9.7 2.8 1.2 3.2 4.4 4.5 10.0 14.1 11.3 11.9 9.3 8.7 7.3
2.7 6.8 2.5 0.3 0.1 0.0 5.3 5.1 1.3 8.6 12.2 10.6 8.0 11.9 9.8 9.6 7.5 0.7 2.5 14.2 15.0 15.0 15.0 15.0 15.0 15.0 15.0 15.0 15.0 15.0 14.0 7.6 9.0 11.2 14.0 7.0 4.5 12.9 15.0 13.4 8.7 14.2 15.0 15.0
15.0 15.0 10.3 1.5 2.0 8.2 10.8 13.8 10.0 14.1 14.9 14.5 15.0 15.0 15.0 15.0 15.0 15.0 15.0 15.0 15.0 15.0 15.0 15.0 15.0 15.0 15.0 15.0 15.0 15.0 15.0 15.0 15.0 15.0 3.9 6.0 14.4 4.3 1.3 3.5 6.5 13.1 13.0 14.0
15.0 15.0 0.8 1.2 8.4 12.4 14.9 12.2 11.3 15.0 15.0 15.0 15.0 15.0 15.0 15.0 15.0 15.0 15.0 15.0 15.0 15.0 15.0 15.0 15.0 15.0 15.0 15.0 15.0 15.0 15.0 15.0 15.0 15.0 15.0 15.0 15.0 15.0 14.8 2.8 0.8 2.8 0.6 1.1
15.0 15.0 11.9 0.1 2.5 10.7 8.1 15.0 15.0 15.0 15.0 15.0 15.0 15.0 15.0 15.0 15.0 15.0 15.0 15.0 15.0 15.0 15.0 15.0 15.0 15.0 15.0 15.0 15.0 15.0 15.0 15.0 15.0 13.9 15.0 14.7 15.0 15.0 15.0 15.0 15.0 11.1 1.3 8.9